Weather History for KBPI - March, 2014

Change the Weather History Date:

Friday, March 7, 2014

  Actual Average Record
Temperature  
Mean Temperature 33 °F 23 °F  
Max Temperature 40 °F 37 °F 53 °F (2015)
Min Temperature 25 °F 9 °F -17 °F (1985)
Degree Days  
Heating Degree Days 32 42  
Month to date heating degree days 239 303  
Since 1 July heating degree days 7183 7826  
Cooling Degree Days 0 0  
Month to date cooling degree days 0 0  
Year to date cooling degree days 0 0  
Moisture  
Dew Point 22 °F    
Average Humidity 66    
Maximum Humidity 81    
Minimum Humidity 50    
Precipitation  
Precipitation 0.00 in 0.01 in 0.04 in (1989)
Month to date precipitation 0.09 0.07  
Year to date precipitation 0.13 0.73  
Sea Level Pressure  
Sea Level Pressure 30.04 in    
Wind  
Wind Speed 14 mph (NNW)    
Max Wind Speed 25 mph    
Max Gust Speed 29 mph    
Visibility 10 miles    
Events      
T = Trace of Precipitation, MM = Missing Value Source: NWS Daily Summary

Daily Weather History Graph

Daily Weather History Graph

Search for Another Location

Airport or City:

Trip Planner

Search our weather history database for the weather conditions in past years. The results will help you decide how hot, cold, wet, or windy it might be!

Date:

Astronomy

Mar. 07, 2014 Rise Set
Actual Time 6:45 AM MST 6:17 PM MST
Civil Twilight 6:17 AM MST 6:45 PM MST
Nautical Twilight 5:45 AM MST 7:18 PM MST
Astronomical Twilight 5:12 AM MST 7:51 PM MST
Moon 10:33 AM MST (3/7) 12:33 AM MST (3/7)
Length of Visible Light 12h 27m
Length of Day
11h 31m
Waxing Crescent, 42% of the Moon is Illuminated
Mar 7
Waxing Crescent
Mar 8
First Quarter
Mar 16
Full
Mar 23
Last Quarter
Mar 30
New

Hourly Weather History & Observations

Time (MST) Temp. Windchill Dew Point Humidity Pressure Visibility Wind Dir Wind Speed Gust Speed Precip Events Conditions
12:53 AM 28.9 °F 19.8 °F 23.0 °F 78% 29.89 in 10.0 mi NNW 10.4 mph - N/A   Clear
1:53 AM 28.0 °F 19.3 °F 23.0 °F 81% 29.89 in 10.0 mi NNW 9.2 mph - N/A   Clear
2:53 AM 28.0 °F 20.0 °F 23.0 °F 81% 29.90 in 10.0 mi NW 8.1 mph - N/A   Clear
3:53 AM 26.1 °F - 21.0 °F 81% 29.90 in 10.0 mi Calm Calm - N/A   Clear
4:53 AM 26.1 °F 15.6 °F 21.0 °F 81% 29.94 in 10.0 mi North 11.5 mph - N/A   Clear
5:53 AM 28.0 °F 15.7 °F 21.0 °F 75% 29.95 in 10.0 mi North 17.3 mph - N/A   Clear
6:53 AM 26.1 °F 14.5 °F 19.9 °F 78% 29.99 in 10.0 mi NNW 13.8 mph - N/A   Scattered Clouds
7:53 AM 26.1 °F 17.6 °F 21.0 °F 81% 30.02 in 10.0 mi NW 8.1 mph - N/A   Mostly Cloudy
8:53 AM 30.9 °F 23.5 °F 25.0 °F 79% 30.01 in 10.0 mi NW 8.1 mph - N/A   Mostly Cloudy
9:53 AM 36.0 °F 29.6 °F 26.1 °F 67% 30.01 in 10.0 mi North 8.1 mph - N/A   Overcast
10:53 AM 37.9 °F 29.6 °F 26.1 °F 62% 30.01 in 10.0 mi North 13.8 mph - N/A   Clear
11:53 AM 39.0 °F 31.0 °F 25.0 °F 57% 30.02 in 10.0 mi North 13.8 mph - N/A   Clear
12:53 PM 37.9 °F 28.9 °F 27.0 °F 65% 30.02 in 10.0 mi NNW 16.1 mph - N/A   Clear
1:53 PM 39.9 °F 31.8 °F 24.1 °F 53% 30.02 in 10.0 mi NNW 15.0 mph - N/A   Clear
2:53 PM 39.0 °F 29.0 °F 24.1 °F 55% 30.03 in 10.0 mi NNW 20.7 mph 28.8 mph N/A   Clear
3:53 PM 39.0 °F 29.6 °F 23.0 °F 53% 30.06 in 10.0 mi NNW 18.4 mph 27.6 mph N/A   Clear
4:53 PM 37.0 °F 26.7 °F 21.9 °F 54% 30.08 in 10.0 mi NNW 19.6 mph - N/A   Clear
5:53 PM 34.0 °F 22.4 °F 21.9 °F 61% 30.11 in 10.0 mi North 20.7 mph 26.5 mph N/A   Clear
6:53 PM 28.9 °F 15.4 °F 21.0 °F 72% 30.14 in 10.0 mi NNW 21.9 mph - N/A   Clear
7:53 PM 28.0 °F 16.5 °F 19.9 °F 72% 30.19 in 10.0 mi NNW 15.0 mph - N/A   Partly Cloudy
8:53 PM 27.0 °F 18.0 °F 21.0 °F 78% 30.19 in 10.0 mi North 9.2 mph - N/A   Mostly Cloudy
9:53 PM 28.9 °F 18.2 °F 19.9 °F 69% 30.18 in 10.0 mi North 13.8 mph - N/A   Overcast
10:53 PM 27.0 °F 15.2 °F 19.9 °F 75% 30.19 in 10.0 mi NNW 15.0 mph - N/A   Clear
11:53 PM 26.1 °F 13.1 °F 18.0 °F 71% 30.20 in 10.0 mi NNW 17.3 mph - N/A   Clear